Weather in Pervomayskiy

Russia / Volgograd Oblast     51°06′55″N   41°51′46″E
temp.,
°C
wind,
m/s
gust,
m/s
humid.,
%
clouds,
%
prec.,
mm/h
press.,
hPa
HPBL,
m
2 march, tue
tue200:00−5wsw478786 0.0 1025138
03:00−4wsw6129052 0.0 1023325
06:00−2wsw71489100 0.0 1020709
09:00−1wsw81487100 0.0 1018786
12:00+1w81387100 0.0 1015917
15:00+1w81495100 0.1 1013717
18:000w81397100 0.8 1011671
21:000wnw51098100 1.8 1010503
3 march, wed
wed300:00−1wnw4896100 0.4 1009263
03:00−1nw5109695 0.5 1010379
06:00−4nw4109446 0.0 1011281
09:00−3nw6119243 0.1 1014575
12:00−1nnw7108595 0.1 1015970
15:00−2nw8117896 0.3 10161078
18:00−4nw5128284 0.0 1018652
21:00−5wnw4118842 0.0 1020290
4 march, thu
thu400:00−4w5119029 0.0 1019303
03:00−4w499362 0.0 1019279
06:00−3wsw5119460 0.0 1018360
09:00−1wsw6129179 0.0 1017610
12:00+1wsw7128748 0.0 1015752
15:00+2wsw7147824 0.0 1013821
18:00+1sw716710 0.0 1010522
21:00+1sw818730 0.0 1010630
5 march, fri
fri500:00+1sw918790 0.0 1008521
03:00+2sw8178747 0.0 1007580
06:00+2wsw71497100 0.1 1007466
09:00+2sw7139398 0.1 1008449
12:00+3wsw7129393 0.0 1009621
15:00+4sw6118696 0.0 1008637
18:00+3ssw61491100 0.1 1007576
21:00+4sw61689100 0.8 1006625
6 march, sat
sat600:00+4sw91886100 0.8 1004617
03:00+3sw71590100 1.6 1004539
06:00+1wnw5997100 1.3 1005444
09:00−2nw7982100 1.9 1008688
12:00−1nw797198 0.0 10111098
15:000nw696099 0.1 10121485
18:00−2nw496010 0.0 1013737
21:00−3nw47617 0.0 10151054